Location: Gollag?dem
(17.0207°N, 80.7261°E)
Time: 13:55:26
(UTC+00:00)

COSMOS 2406 - Pass Details

Date: 03 August 2024
Orbit: 846 x 859 km, 71.0° (Epoch: 11 September)

Event Time Altitude Azimuth Distance (km) Brightness Sun altitude
Rises 14:52:27 0° 344° (NNW) 3,402 7.0 -23.6°
Reaches altitude 10° 14:54:54 10° 346° (NNW) 2,467 6.1 -24.2°
Maximum altitude 15:00:34 82° 73° (ENE) 860 3.1 -25.3°
Enters shadow 15:01:19 68° 142° (SE) 913 3.1 -25.5°
